This is the latest recevied weather packets stored in our database for station/object OH6HPS. If no packets are shown the sender has not sent any weather packets the latest 10 day(s).
| Time | Temp. | Humidity | Pressure | Rain* | Wind** | Luminosity | Snow |
|---|---|---|---|---|---|---|---|
| 1788071042 | 17.78° C | 92% | 1006 hPa | 0 mm | - | 78 W/m² | - |
| 1788070442 | 17.22° C | 92% | 1006 hPa | 0 mm | - | 127 W/m² | - |
| 1788069843 | 17.22° C | 93% | 1005.9 hPa | 0 mm | - | 97 W/m² | - |
| 1788069243 | 17.22° C | 94% | 1006 hPa | 0 mm | - | 56 W/m² | - |
| 1788068643 | 17.22° C | 94% | 1006 hPa | 0 mm | - | 53 W/m² | - |
| 1788068042 | 16.67° C | 94% | 1006 hPa | 0 mm | - | 41 W/m² | - |
| 1788067443 | 16.67° C | 94% | 1006.1 hPa | 0 mm | - | 46 W/m² | - |
| 1788066843 | 16.67° C | 94% | 1006.1 hPa | 0 mm | - | 27 W/m² | - |
| 1788066242 | 16.67° C | 94% | 1006.1 hPa | 0 mm | - | 21 W/m² | - |
| 1788065643 | 16.67° C | 95% | 1006.1 hPa | 0 mm | - | 23 W/m² | - |
| 1788065043 | 16.67° C | 95% | 1006.1 hPa | 0 mm | - | 14 W/m² | - |
| 1788064443 | 16.67° C | 95% | 1006 hPa | 0 mm | - | 18 W/m² | - |
| 1788063843 | 16.67° C | 95% | 1006 hPa | 0 mm | - | 12 W/m² | - |
| 1788063243 | 16.67° C | 95% | 1006 hPa | 0 mm | - | 9 W/m² | - |
| 1788062643 | 16.67° C | 95% | 1006 hPa | 0 mm | - | 0 W/m² | - |
| 1788062042 | 16.67° C | 95% | 1006 hPa | 0 mm | - | 0 W/m² | - |
| 1788060843 | 16.67° C | 95% | 1006 hPa | 0 mm | - | 0 W/m² | - |
| 1788059643 | 16.67° C | 95% | 1005.9 hPa | 0 mm | - | 0 W/m² | - |
| 1788041042 | 16.67° C | 90% | 1006.8 hPa | 0.76 mm | - | 0 W/m² | - |
| 1788039842 | 16.67° C | 88% | 1006.9 hPa | 0.51 mm | - | 0 W/m² | - |
| 1788039242 | 16.67° C | 87% | 1006.9 hPa | 0.51 mm | - | 0 W/m² | - |
| 1788038643 | 17.22° C | 86% | 1007 hPa | 0.25 mm | - | 0 W/m² | - |
| 1788038042 | 17.22° C | 84% | 1007 hPa | 0.25 mm | - | 0 W/m² | - |
| 1788036842 | 18.33° C | 81% | 1007.1 hPa | 0 mm | - | 0 W/m² | - |
| 1788035642 | 18.89° C | 77% | 1007.2 hPa | 0 mm | - | 0 W/m² | - |
* Rain latest hour (hover to see other rain measurements)
** Current wind speed in m/s (hover to see current wind gust speed)